Find WHDW 03-07

NORAD ID: 63693 Int'l Des: 2025-086 Owner: ZXW Country: CN Constellation: xingwang operational
LEOCIRCULARPOLARONEWEB_TYPE

リアルタイム位置

3D地球を読み込み中...

WHDW 03-07について

説明を読み込み中...

次回通過

Passes for default location (London). Set your location on the main map for personalized predictions.

高度履歴

Loading altitude history...

軌道要素

1 63693U 25086G 26105.64434826 .00000062 00000-0 10993-3 0 9992
2 63693 86.5103 334.2644 0002297 77.2879 282.8512 13.24411913 46588
Epoch: Apr 15, 2026 • Age: 7 hours

現在のステータス

高度 1180.6 km
速度 7.26 km/s
衛星直下点 -32.31°S, 149.55°E
打ち上げ日 Apr 28, 2025
運用期間 0.9 years
タイプ other

技術仕様

分類 Payload
質量 800.00 kg
乾燥質量 800.00 kg
総質量 800.00 kg
長さ 3.00 m
直径 1.00 m
スパン 10.00 m
形状 Box + 2 Pan
製造者 CAST
バスタイプ Xingwang CL
フェーズステータス In Orbit
所有者/国 ZXW/CN

Most Searched